Bad Axe, MI

3:40 PM EDT on July 24, 2017 (GMT -0400)
Huron County Memorial

Weather History for KBAX - January, 2014

Change the Weather History Date:

Friday, January 3, 2014

  Actual Average (KP58) Record (KP58)
Temperature  
Mean Temperature 3 °F -  
Max Temperature 13 °F 32 °F 57 °F (1998)
Min Temperature -7 °F 22 °F 10 °F (2014)
Degree Days  
Heating Degree Days 62    
Moisture  
Dew Point -2 °F    
Average Humidity 72    
Maximum Humidity 85    
Minimum Humidity 57    
Precipitation  
Precipitation 0.00 in - - ()
Sea Level Pressure  
Sea Level Pressure 30.26 in    
Wind  
Wind Speed 10 mph (SW)    
Max Wind Speed 23 mph    
Max Gust Speed 32 mph    
Visibility 8 miles    
Events Snow    
Averages and records for this station are not official NWS values.
T = Trace of Precipitation, MM = Missing Value Source: NWS Daily Summary

Daily Weather History Graph

Daily Weather History Graph

Search for Another Location

Airport or City:

Trip Planner

Search our weather history database for the weather conditions in past years. The results will help you decide how hot, cold, wet, or windy it might be!

Date:

Astronomy

Jan. 03, 2014 Rise Set
Actual Time 8:06 AM EST 5:07 PM EST
Civil Twilight 7:33 AM EST 5:39 PM EST
Nautical Twilight 6:57 AM EST 6:16 PM EST
Astronomical Twilight 6:22 AM EST 6:50 PM EST
Moon 9:25 AM EST (1/3) 8:21 PM EST (1/3)
Length of Visible Light 10h 06m
Length of Day
9h 01m
Waxing Crescent, 8% of the Moon is Illuminated
Jan 3
Waxing Crescent
Jan 7
First Quarter
Jan 15
Full
Jan 24
Last Quarter
Jan 30
New

Hourly Weather History & Observations

Time (EST) Temp. Windchill Dew Point Humidity Pressure Visibility Wind Dir Wind Speed Gust Speed Precip Events Conditions
12:13 AM 9.0 °F -4.2 °F 3.0 °F 77% 30.23 in - North 9.2 mph - N/A   Overcast
12:32 AM 9.1 °F -4.0 °F 3.7 °F 79% 30.23 in - NNW 9.2 mph - N/A   Overcast
12:53 AM 8.8 °F -4.4 °F 5.0 °F 85% 30.23 in 1.0 mi NW 9.2 mph - N/A Snow Light Snow
1:13 AM 8.6 °F -6.3 °F 4.6 °F 84% 30.23 in 2.0 mi NW 11.5 mph - N/A Snow Light Snow
1:32 AM 8.2 °F -6.8 °F 4.6 °F 85% 30.24 in 1.0 mi NW 11.5 mph - N/A Snow Snow
1:53 AM 7.7 °F -8.9 °F 3.9 °F 85% 30.24 in 1.0 mi NW 13.8 mph - N/A Snow Snow
2:13 AM 5.7 °F -9.1 °F 1.4 °F 82% 30.26 in 1.5 mi WNW 10.4 mph - N/A Snow Light Snow
2:32 AM 3.9 °F -11.3 °F -0.4 °F 82% 30.26 in 1.2 mi WNW 10.4 mph - N/A Snow Light Snow
2:53 AM 3.6 °F -12.6 °F -0.9 °F 82% 30.27 in 1.5 mi WNW 11.5 mph 17.3 mph N/A Snow Light Snow
3:13 AM 3.7 °F -10.6 °F -0.6 °F 82% 30.28 in 1.2 mi WNW 9.2 mph - N/A Snow Light Snow
3:32 AM 3.7 °F -10.6 °F -0.8 °F 82% 30.29 in 2.5 mi NW 9.2 mph - N/A Snow Light Snow
3:53 AM 3.2 °F -12.2 °F -1.3 °F 82% 30.29 in 4.0 mi WNW 10.4 mph - N/A Snow Light Snow
4:13 AM 2.5 °F -11.1 °F -2.2 °F 81% 30.29 in 7.0 mi NW 8.1 mph - N/A   Overcast
4:32 AM 2.7 °F -12.9 °F -1.8 °F 81% 30.29 in 10.0 mi NW 10.4 mph - N/A   Overcast
4:53 AM 2.1 °F -10.4 °F -2.4 °F 81% 30.29 in 10.0 mi NW 6.9 mph - N/A   Mostly Cloudy
5:13 AM 1.4 °F -12.5 °F -2.9 °F 82% 30.31 in 10.0 mi WNW 8.1 mph - N/A   Scattered Clouds
5:32 AM 1.4 °F -12.5 °F -3.1 °F 81% 30.31 in 10.0 mi WNW 8.1 mph - N/A   Mostly Cloudy
5:53 AM 1.4 °F -15.3 °F -3.1 °F 81% 30.32 in 10.0 mi WNW 11.5 mph - N/A   Scattered Clouds
6:13 AM 0.5 °F -14.6 °F -3.6 °F 83% 30.32 in 10.0 mi WNW 9.2 mph - N/A   Scattered Clouds
6:32 AM 0.5 °F -14.6 °F -3.8 °F 82% 30.33 in 10.0 mi WNW 9.2 mph - N/A   Scattered Clouds
6:53 AM 0.5 °F -14.6 °F -4.0 °F 81% 30.34 in 10.0 mi WNW 9.2 mph - N/A   Clear
7:13 AM 0.7 °F -12.1 °F -4.0 °F 81% 30.34 in 10.0 mi WNW 6.9 mph - N/A   Scattered Clouds
7:32 AM -1.1 °F -12.9 °F -5.3 °F 83% 30.35 in 10.0 mi WNW 5.8 mph - N/A   Clear
7:53 AM -3.5 °F -11.8 °F -7.8 °F 82% 30.35 in 10.0 mi WSW 3.5 mph - N/A   Clear
8:13 AM -4.5 °F -15.2 °F -8.7 °F 82% 30.35 in 7.0 mi SW 4.6 mph - N/A   Clear
8:32 AM -5.1 °F -15.8 °F -9.4 °F 82% 30.35 in 5.0 mi WSW 4.6 mph - N/A   Haze
8:53 AM -4.5 °F -15.2 °F -8.7 °F 82% 30.36 in 10.0 mi WSW 4.6 mph - N/A   Clear
9:13 AM -7.8 °F - -12.6 °F 79% 30.36 in 10.0 mi Calm Calm - N/A   Clear
9:33 AM -7.4 °F - -12.1 °F 80% 30.37 in 4.0 mi Calm Calm - N/A   Haze
9:53 AM -4.5 °F -22.8 °F -8.9 °F 82% 30.37 in 10.0 mi West 11.5 mph 17.3 mph N/A   Clear
10:12 AM -1.8 °F -15.2 °F -6.9 °F 79% 30.37 in 10.0 mi West 6.9 mph - N/A   Clear
10:33 AM -0.8 °F -12.5 °F -6.9 °F 75% 30.37 in 10.0 mi West 5.8 mph - N/A   Clear
10:53 AM 0.9 °F -8.9 °F -6.0 °F 73% 30.37 in 10.0 mi WSW 4.6 mph - N/A   Clear
11:12 AM 1.8 °F -7.8 °F -5.8 °F 71% 30.37 in 10.0 mi WSW 4.6 mph - N/A   Clear
11:33 AM 3.2 °F -4.2 °F -4.9 °F 69% 30.37 in 10.0 mi WSW 3.5 mph - N/A   Clear
11:53 AM 4.6 °F -6.0 °F -4.2 °F 67% 30.36 in 10.0 mi WSW 5.8 mph - N/A   Clear
12:12 PM 5.4 °F -7.6 °F -4.0 °F 65% 30.35 in 10.0 mi WSW 8.1 mph - N/A   Clear
12:33 PM 5.7 °F -1.3 °F -3.5 °F 66% 30.34 in 10.0 mi SW 3.5 mph - N/A   Clear
12:53 PM 5.7 °F -1.3 °F -3.3 °F 66% 30.32 in 10.0 mi South 3.5 mph - N/A   Clear
1:12 PM 6.3 °F -0.7 °F -2.9 °F 66% 30.32 in 10.0 mi South 3.5 mph - N/A   Clear
1:33 PM 6.8 °F -0.1 °F -3.5 °F 63% 30.32 in 10.0 mi SSW 3.5 mph - N/A   Clear
1:53 PM 7.7 °F - -2.4 °F 63% 30.31 in 10.0 mi Calm Calm - N/A   Clear
2:12 PM 8.2 °F 1.6 °F -2.2 °F 63% 30.30 in 10.0 mi South 3.5 mph - N/A   Clear
2:33 PM 9.3 °F 1.0 °F -1.1 °F 63% 30.29 in 10.0 mi South 4.6 mph - N/A   Clear
2:53 PM 10.9 °F 0.2 °F -0.2 °F 61% 30.29 in 10.0 mi South 6.9 mph - N/A   Clear
3:12 PM 11.1 °F 0.4 °F -0.2 °F 60% 30.28 in 10.0 mi South 6.9 mph - N/A   Clear
3:33 PM 12.0 °F -2.0 °F -0.6 °F 57% 30.28 in 10.0 mi South 11.5 mph - N/A   Clear
3:53 PM 11.3 °F -1.3 °F -0.8 °F 58% 30.27 in 10.0 mi South 9.2 mph - N/A   Clear
4:12 PM 9.9 °F -3.1 °F -2.0 °F 59% 30.27 in 10.0 mi South 9.2 mph - N/A   Clear
4:33 PM 9.3 °F -1.7 °F -1.8 °F 61% 30.26 in 10.0 mi SSE 6.9 mph - N/A   Clear
4:52 PM 9.7 °F -4.2 °F -1.1 °F 62% 30.25 in 10.0 mi SSE 10.4 mph - N/A   Clear
5:13 PM 9.9 °F -4.0 °F -1.7 °F 60% 30.24 in 10.0 mi South 10.4 mph - N/A   Scattered Clouds
5:33 PM 10.8 °F -3.6 °F -0.6 °F 60% 30.23 in 10.0 mi South 11.5 mph - N/A   Mostly Cloudy
5:52 PM 10.4 °F -2.4 °F -0.8 °F 61% 30.24 in 10.0 mi South 9.2 mph - N/A   Mostly Cloudy
6:13 PM 11.7 °F -3.2 °F 0.3 °F 60% 30.24 in 10.0 mi South 12.7 mph - N/A   Mostly Cloudy
6:33 PM 12.2 °F -3.1 °F 0.7 °F 60% 30.22 in 10.0 mi South 13.8 mph - N/A   Mostly Cloudy
6:52 PM 12.2 °F -3.1 °F 1.4 °F 62% 30.21 in 10.0 mi South 13.8 mph - N/A   Scattered Clouds
7:13 PM 12.9 °F -2.8 °F 2.3 °F 63% 30.20 in 10.0 mi South 15.0 mph 19.6 mph N/A   Scattered Clouds
7:32 PM 12.9 °F -3.9 °F 2.5 °F 63% 30.19 in 10.0 mi South 17.3 mph 23.0 mph N/A   Scattered Clouds
7:53 PM 12.7 °F -4.1 °F 3.0 °F 65% 30.19 in 10.0 mi South 17.3 mph 23.0 mph N/A   Mostly Cloudy
8:12 PM 13.1 °F -3.7 °F 3.2 °F 65% 30.17 in 10.0 mi South 17.3 mph - N/A   Overcast
8:33 PM 12.9 °F -2.8 °F 3.2 °F 65% 30.16 in 10.0 mi South 15.0 mph - N/A   Overcast
8:53 PM 12.9 °F -4.4 °F 2.8 °F 64% 30.15 in 10.0 mi South 18.4 mph - N/A   Overcast
9:12 PM 12.0 °F -7.3 °F 1.9 °F 64% 30.12 in 7.0 mi South 23.0 mph 31.1 mph N/A   Mostly Cloudy
9:33 PM 11.8 °F -6.3 °F 2.1 °F 65% 30.11 in 7.0 mi South 19.6 mph 26.5 mph N/A   Mostly Cloudy
9:53 PM 11.3 °F -7.4 °F 1.9 °F 66% 30.10 in 7.0 mi South 20.7 mph 26.5 mph N/A   Mostly Cloudy
10:12 PM 11.3 °F -5.5 °F 1.6 °F 65% 30.09 in 10.0 mi South 16.1 mph 25.3 mph N/A   Scattered Clouds
10:33 PM 11.3 °F -7.0 °F 2.1 °F 67% 30.07 in 7.0 mi South 19.6 mph 28.8 mph N/A   Clear
10:53 PM 11.7 °F -6.5 °F 2.3 °F 66% 30.05 in 7.0 mi South 19.6 mph 29.9 mph N/A   Clear
11:12 PM 11.5 °F -7.2 °F 2.5 °F 67% 30.06 in 7.0 mi South 20.7 mph 28.8 mph N/A   Clear
11:33 PM 12.0 °F -6.9 °F 3.2 °F 68% 30.04 in 7.0 mi South 21.9 mph 27.6 mph N/A   Clear
11:52 PM 12.6 °F -6.2 °F 3.2 °F 66% 30.04 in 7.0 mi South 21.9 mph 32.2 mph N/A   Clear